Regional Weather Roundup
Issued by NWS

Home | Current Version | Previous Version | Text Only | Print | Product List | Glossary On
Versions: 1 2 3 4 5 6 7 8 9 10 11 12 13 14 15 16 17 18 19 20 21 22 23 24 25 26 27 28 29 30 31 32 33 34 35 36 37 38 39 40 41 42 43 44 45 46 47 48 49 50
000
ASUS44 KOUN 040400
RWROK

WEATHER ROUNDUP FOR OKLAHOMA
NATIONAL WEATHER SERVICE NORMAN OK
1000 PM CST SAT DEC 03 2016

NOTE: "FAIR" INDICATES FEW OR NO CLOUDS BELOW 12,000 FEET WITH NO
      SIGNIFICANT WEATHER AND/OR OBSTRUCTIONS TO VISIBILITY.

OKZ001>007-009>012-014-015-017-040500-
NORTHWEST OKLAHOMA AND THE PANHANDLE

CITY           SKY/WX    TMP DP  RH WIND       PRES   REMARKS
GAGE           CLOUDY    41  40  96 SE3       30.04R
GUYMON         CLOUDY    38  38 100 N3        30.01R
$$

OKZ016-021>023-033>039-044-045-040500-
SOUTHWEST OKLAHOMA

CITY           SKY/WX    TMP DP  RH WIND       PRES   REMARKS
LAWTON/REGL    CLOUDY    45  44  97 E3        30.04R FOG
LAWTON/FT SILL CLOUDY    44  44 100 E5        30.02R
FREDERICK      CLOUDY    44  44 100 E8        30.01S FOG
CLINTON        CLOUDY    43  41  93 E7        30.03F FOG
HOBART         CLOUDY    44  43  96 E6        30.04S FOG
ALTUS AFB      CLOUDY    44  42  92 E3        30.03S
$$

OKZ018>020-024>031-040500-
CENTRAL OKLAHOMA

CITY           SKY/WX    TMP DP  RH WIND       PRES   REMARKS
OKLAHOMA CITY  CLOUDY    44  43  96 E7        30.03F FOG
OKC/WILEY POST CLOUDY    44  43  96 E6        30.04F FOG
OKC/TINKER AFB CLOUDY    43  43  98 E3        30.03S FOG
STILLWATER     LGT RAIN  44  43  96 E6        30.06F FOG
GUTHRIE        CLOUDY    44  43  96 E6        30.05F FOG
$$

OKZ008-013-054>072-040500-
NORTHEAST OKLAHOMA

CITY           SKY/WX    TMP DP  RH WIND       PRES   REMARKS
TULSA          DRIZZLE   45  45 100 E5        30.06F FOG
TULSA/JONES    LGT RAIN  45  43  93 E6        30.07F FOG
PONCA CITY     LGT RAIN  44  41  89 SE10      30.07S FOG
BARTLESVILLE   LGT RAIN  44  42  93 E5        30.10S FOG
MUSKOGEE       LGT RAIN  44  43  96 E7        30.08F FOG
$$

OKZ032-040>043-046>053-073>077-040500-
SOUTH CENTRAL/SOUTHEAST OKLAHOMA

CITY           SKY/WX    TMP DP  RH WIND       PRES   REMARKS
MCALESTER      CLOUDY    46  43  89 NE3       30.05R FOG
$$





USA.gov is the U.S. government's official web portal to all federal, state and local government web resources and services.